Location: Bishopstone
(51.0167°N, 1.9000°W)
Time: 14:53:10
(UTC+00:00)

ISS - Visible Passes

Search period start: 17 November 2019 00:00
Search period end: 27 November 2019 00:00
Orbit: 412 x 421 km, 51.6° (Epoch: 17 November)

Date Brightness Start Highest point End Pass type
(mag) Time Alt. Az. Time Alt. Az. Time Alt. Az.
22 Nov -0.8 19:02:34 10° SSW 19:02:51 12° SSW 19:02:51 12° SSW visible
23 Nov -1.9 18:14:39 10° SSW 18:16:36 20° SSE 18:16:36 20° SSE visible
24 Nov -1.6 17:27:03 10° S 17:29:04 15° SE 17:30:16 13° ESE visible
24 Nov -1.3 19:01:59 10° WSW 19:03:11 20° SW 19:03:11 20° SW visible
25 Nov -3.1 18:13:44 10° SW 18:16:47 41° SSE 18:16:47 41° SSE visible
26 Nov -2.5 17:25:37 10° SSW 17:28:34 29° SSE 17:30:19 18° E visible
26 Nov -1.4 19:01:43 10° WSW 19:03:13 24° WSW 19:03:13 24° WSW visible
